Theta_e
303 304 304 304 305 305 306 306 306 305 304 306 305 309 306 307 298 309 314 316 312 303 296 298 295 295 297 300 298 299 297 296 297 296 297 295 298 296 296 296 295 296 294 295 295 296 293 295 294 297 297 301 300 303 303 303 302 301 298 301 301 305 294 291 292 296 298 302 302 302 302 301 298 298 299 297 294 296 294 293 296 290 292 289 289 286 290
303 303 304 304 305 305 305 306 306 305 304 304 307 304 304 304 301 305 312 316 311 301 290 290 292 295 297 297 296 298 296 296 295 294 296 295 295 294 295 296 297 295 298 296 293 296 288 295 298 295 298 297 304 304 303 304 300 299 298 296 302 292 297 295 290 288 291 294 296 296 300 299 297 296 298 298 298 298 298 297 300 289 292 291 288 283 287
303 304 304 304 305 305 305 306 306 305 305 305 307 301 305 305 306 304 307 310 308 297 299 296 294 295 295 294 294 294 296 297 296 296 295 297 296 295 294 295 297 295 297 295 296 297 294 292 297 300 298 298 304 303 302 304 301 302 304 309 303 295 294 292 286 283 281 281 282 285 288 292 296 297 296 298 297 299 296 288 293 287 292 292 288 288 295
303 304 304 304 304 305 305 305 305 305 305 304 307 306 303 300 290 299 301 305 304 303 304 301 297 294 294 290 294 295 293 298 298 297 296 297 297 297 296 297 298 295 295 294 294 294 297 294 294 295 295 298 300 304 303 302 301 304 307 306 304 298 299 296 294 290 288 289 291 296 296 295 291 295 296 296 297 298 299 296 289 287 292 290 293 293 294
303 304 304 304 304 305 305 305 304 304 304 304 306 307 306 303 294 293 291 298 300 298 300 298 298 293 297 289 295 292 294 294 295 298 293 297 296 296 296 295 293 293 293 293 293 294 294 296 295 294 297 298 300 303 302 302 302 309 303 305 301 298 291 296 295 296 294 295 294 296 296 293 294 294 294 297 297 299 298 290 289 296 291 286 293 297 294
303 304 304 304 304 305 305 305 304 304 304 304 310 302 304 293 296 300 299 294 291 293 293 298 296 297 297 294 295 292 292 293 290 295 297 298 298 293 295 295 295 294 293 294 290 293 293 294 293 298 298 297 300 299 302 300 307 305 301 304 301 297 290 294 295 293 295 295 295 296 296 295 294 294 295 295 298 298 296 295 296 297 290 288 295 298 296
303 303 304 304 304 304 305 305 305 304 303 304 310 301 303 301 300 300 303 294 297 297 297 299 296 295 295 294 295 292 292 291 293 294 294 295 295 296 288 292 294 295 296 295 291 296 291 289 298 298 297 296 296 296 298 302 304 302 300 301 303 297 292 296 294 293 293 294 295 295 294 294 295 294 295 296 298 297 296 297 300 298 296 297 298 298 296
302 303 303 304 304 304 305 305 305 304 302 309 306 301 298 295 295 296 302 300 296 298 298 297 296 293 295 290 293 293 293 291 293 295 295 289 292 297 292 294 295 297 297 296 292 294 297 295 291 297 296 296 299 296 297 298 301 301 299 299 302 298 291 296 296 292 292 294 295 295 293 293 292 294 295 297 297 297 298 299 300 300 299 299 298 295 292
302 303 303 304 304 304 305 305 305 304 304 310 303 300 302 303 303 304 298 293 292 296 297 295 294 291 292 291 292 294 293 292 294 293 297 294 292 294 293 296 295 297 296 294 293 295 296 296 296 297 296 293 298 296 297 299 298 299 301 300 301 299 293 298 296 289 290 294 293 293 293 292 292 292 294 295 295 293 296 295 300 298 294 296 295 291 290
302 302 303 303 304 304 305 305 305 304 304 310 306 298 304 306 307 306 300 292 293 293 296 296 294 289 293 292 291 291 292 294 295 290 295 297 297 296 295 296 294 293 293 292 293 296 297 298 298 298 298 300 299 300 300 299 298 297 301 300 297 299 296 291 291 288 288 294 294 293 293 291 288 289 293 295 297 296 299 300 301 300 299 293 290 291 297
302 302 302 303 303 304 304 305 305 304 306 305 305 302 302 301 301 303 300 292 290 294 294 292 292 291 295 294 292 294 293 293 294 289 289 296 296 298 296 295 293 291 292 294 298 300 300 300 300 300 299 299 298 299 299 300 300 298 298 298 296 298 295 291 295 287 287 291 293 293 289 281 284 296 298 299 295 295 294 295 298 300 301 296 298 297 299
301 302 302 302 303 303 304 305 305 306 304 307 308 304 303 306 305 304 296 290 290 295 292 289 291 292 292 293 294 291 292 292 292 295 292 293 295 297 295 294 294 288 296 300 300 301 303 303 301 300 299 299 299 299 299 298 298 299 302 298 296 295 293 291 294 288 286 290 291 284 280 283 292 299 299 300 300 299 296 297 298 298 298 299 298 298 298
301 301 302 302 303 303 304 305 305 305 305 307 308 302 305 309 304 301 296 293 289 292 290 291 294 294 294 292 293 293 294 294 294 294 295 293 292 294 295 293 293 294 299 298 299 299 297 295 296 296 296 297 297 298 297 297 297 299 299 299 299 292 292 292 289 290 289 287 286 279 281 290 296 297 298 300 299 298 296 294 297 299 298 298 296 298 299
301 301 301 302 302 303 304 305 305 306 305 306 306 307 305 307 304 302 298 293 289 293 293 293 293 294 295 293 292 295 295 294 294 296 293 294 293 292 294 296 296 299 299 300 298 297 294 295 289 290 291 293 293 292 294 296 297 297 297 298 298 297 295 292 288 291 284 286 286 284 289 290 289 291 293 295 292 294 292 286 291 298 299 299 298 298 298
301 301 301 302 302 303 304 304 305 305 305 305 309 307 305 307 308 305 305 297 290 291 293 287 291 293 294 293 293 292 293 293 293 292 295 296 293 294 294 295 299 299 300 298 294 296 292 290 286 286 288 286 283 285 294 290 296 298 298 298 298 297 291 293 289 287 290 286 284 283 283 280 284 289 294 297 299 298 300 296 290 299 300 300 297 297 298
301 301 301 301 302 303 303 304 305 305 305 305 308 305 305 309 310 308 304 295 292 287 290 295 296 295 294 293 294 292 290 291 292 293 294 294 293 295 297 298 301 300 299 297 296 292 290 287 285 285 284 285 287 286 285 290 290 296 298 297 297 297 297 293 290 287 287 285 282 282 281 282 288 290 293 295 296 298 298 293 287 296 299 298 297 295 295
301 301 301 301 302 302 303 304 305 305 305 304 305 307 304 310 307 305 303 297 294 287 295 295 297 297 294 292 295 292 293 290 293 288 288 290 292 293 296 299 302 301 296 295 294 291 289 287 290 289 288 292 287 284 290 287 287 288 293 295 294 294 292 291 287 286 287 286 283 281 283 283 289 293 294 295 296 297 295 282 283 294 300 298 297 295 295
301 301 301 301 301 302 303 304 305 305 305 305 305 307 303 310 310 308 303 298 291 291 295 296 294 292 291 293 292 295 296 295 294 296 291 293 294 292 293 297 293 299 300 292 291 289 287 286 285 285 284 291 292 292 282 288 284 284 287 289 286 288 288 289 285 286 286 285 283 283 285 289 292 292 295 295 297 295 284 280 288 297 298 298 298 297 297
301 300 301 301 301 302 303 304 305 305 306 305 306 307 303 308 309 309 303 297 294 288 294 297 297 295 296 298 296 296 296 295 294 291 289 290 291 294 296 297 297 290 296 291 292 288 287 287 290 289 285 288 290 285 291 286 285 289 290 286 287 287 287 288 288 285 284 285 283 282 284 287 291 294 295 296 292 284 283 292 300 299 297 299 298 297 298
301 301 300 301 301 302 303 303 304 305 306 305 305 306 304 307 309 308 300 296 296 292 294 295 295 293 295 293 291 291 293 294 293 292 290 287 294 296 294 291 294 295 292 294 286 289 287 285 287 290 286 287 288 291 287 288 291 287 288 290 287 287 284 284 284 286 286 285 282 281 277 287 295 295 294 295 287 287 295 296 297 299 298 296 295 296 296
301 301 300 300 301 302 303 303 304 305 305 306 304 306 302 307 310 310 308 301 297 291 292 298 298 295 296 295 296 294 294 291 292 291 292 293 296 293 284 284 289 292 287 289 285 285 286 285 288 286 290 288 289 289 284 286 288 291 291 288 289 292 285 285 286 288 282 282 279 279 286 291 296 294 287 290 291 295 297 296 293 296 298 295 294 295 296
301 301 300 300 301 301 302 303 304 305 305 306 305 309 303 304 308 308 308 305 297 293 296 299 300 298 299 299 298 299 296 297 297 297 293 291 296 293 293 294 293 293 293 294 291 290 292 290 292 288 286 288 292 286 288 284 283 288 293 291 283 291 289 290 284 289 286 283 285 290 293 294 296 295 294 294 296 297 297 297 296 295 295 297 295 295 296
301 301 300 300 300 301 302 303 303 304 305 305 305 308 302 304 305 309 309 301 302 302 303 301 300 299 300 300 300 301 301 301 300 300 298 293 291 293 291 290 291 297 297 296 290 291 290 290 286 290 288 289 286 285 288 287 284 287 285 291 290 294 294 295 292 288 292 293 294 294 293 294 294 296 296 295 296 297 297 296 294 294 295 296 294 294 294
301 301 300 300 300 301 301 302 303 304 304 305 305 307 306 306 306 307 305 301 297 293 295 299 296 291 294 295 298 300 301 300 300 301 303 300 290 290 294 294 295 296 295 296 297 293 291 290 290 291 285 289 290 286 283 283 285 289 287 287 291 292 294 292 288 291 287 282 292 291 292 293 294 294 296 297 297 296 297 296 295 295 295 295 295 294 294
301 300 300 300 300 300 301 302 303 303 304 304 305 308 311 308 306 306 302 293 293 293 288 290 292 296 299 301 301 299 300 302 303 302 301 301 297 292 291 295 299 293 293 296 298 295 292 287 291 290 285 290 291 285 290 286 285 290 285 287 288 287 293 289 290 289 286 286 291 292 294 294 295 294 293 293 294 295 296 296 296 296 296 295 295 295 295
301 300 300 300 300 300 301 302 302 303 303 304 305 306 305 302 306 307 306 305 302 294 290 289 293 299 300 298 297 298 301 302 301 301 300 299 300 299 298 298 299 301 299 299 296 291 289 289 289 288 287 287 294 287 287 289 288 291 287 286 291 290 293 286 289 287 289 292 292 292 293 293 293 294 295 295 294 293 294 295 295 295 294 295 296 296 296
300 301 300 300 300 300 301 301 302 303 303 304 305 307 306 306 307 304 301 301 298 292 293 289 293 297 299 296 299 301 300 301 301 301 299 299 299 300 300 298 297 297 296 295 295 290 291 289 288 286 289 288 291 291 290 288 289 287 286 290 293 290 287 290 288 285 285 285 288 291 285 285 290 293 294 294 295 295 295 295 295 295 294 294 293 294 295
301 301 300 300 300 300 301 301 302 302 303 304 305 307 309 305 306 305 306 304 300 293 292 292 292 296 300 296 299 300 300 301 300 300 299 299 299 299 298 296 297 295 293 291 288 289 288 286 286 289 289 292 289 288 291 290 290 288 288 289 291 288 289 289 285 285 284 290 292 293 292 292 293 293 294 295 296 295 294 293 293 293 293 292 293 293 293
301 301 301 301 301 301 301 302 302 302 303 304 306 307 306 306 308 307 305 306 305 300 297 294 296 297 289 294 300 299 300 301 300 299 299 298 298 298 297 297 295 295 295 292 290 289 288 287 289 288 288 292 289 287 289 284 284 283 288 292 292 292 293 292 291 292 292 294 293 293 292 290 292 294 294 294 295 295 294 294 294 294 294 294 294 294 292
301 301 301 301 301 301 302 302 302 303 303 305 305 303 299 300 306 306 304 305 304 302 295 290 287 289 298 298 297 298 298 299 299 300 299 298 298 297 296 296 296 296 295 290 289 286 288 289 289 293 293 295 288 287 284 285 284 286 291 291 292 293 292 293 293 292 290 294 294 294 293 293 294 295 295 295 295 294 292 293 294 294 294 295 294 293 294
301 301 301 301 301 302 302 302 303 303 303 304 303 296 293 290 300 305 303 306 307 301 295 294 289 293 293 297 298 295 297 297 298 298 298 298 299 297 298 297 296 294 290 290 289 288 289 286 287 290 294 291 288 286 286 285 284 285 289 291 291 292 292 292 294 295 294 294 295 294 294 294 294 294 293 294 294 294 294 294 294 295 294 293 293 293 293
301 301 302 302 302 302 302 303 303 303 306 305 299 296 296 296 300 304 304 307 307 301 295 290 288 288 289 292 297 298 298 299 298 299 298 298 296 297 298 297 293 296 291 289 289 290 287 288 287 289 291 291 289 285 287 286 283 284 290 291 292 292 293 292 293 294 294 295 293 291 291 291 292 291 290 293 294 294 293 294 294 294 293 293 292 293 293
301 302 302 302 302 302 302 303 303 304 306 303 303 304 303 302 302 304 305 307 304 300 300 291 287 287 287 291 297 297 297 298 297 297 294 297 295 296 293 297 297 295 298 291 288 286 291 289 289 287 291 294 287 286 286 284 286 289 290 291 292 292 292 293 293 293 293 293 293 289 288 289 290 292 294 294 294 293 293 293 294 294 293 293 293 292 293
302 302 302 302 302 303 303 303 303 301 302 301 303 303 305 302 305 304 306 307 304 302 295 290 286 285 287 294 290 295 297 292 292 294 289 295 297 296 290 294 294 289 293 289 289 289 290 289 288 287 290 288 287 285 282 286 290 291 291 292 292 292 292 292 292 292 292 293 293 293 293 293 293 293 293 292 292 294 294 293 293 291 291 292 292 292 292
302 302 302 302 303 303 303 302 306 304 302 304 303 304 305 302 302 303 306 305 293 291 289 289 290 286 286 287 286 291 297 294 290 293 289 292 298 293 293 289 291 287 289 296 289 289 287 288 291 286 285 289 285 282 283 287 289 290 290 290 291 292 291 290 290 292 292 293 292 293 293 293 292 291 291 292 292 293 292 292 292 292 291 291 291 291 292
303 302 302 303 302 303 305 305 302 302 300 301 301 305 300 303 305 308 310 309 302 293 289 288 288 286 287 284 284 288 297 294 295 294 294 291 292 295 294 289 285 289 294 290 286 290 287 292 288 283 288 284 283 285 287 289 289 290 290 290 291 291 291 291 291 291 292 293 293 293 293 293 291 291 291 292 292 292 291 291 292 292 291 291 291 291 291
303 301 301 300 303 303 300 299 301 302 301 303 303 303 301 303 304 306 305 302 304 304 293 289 288 288 289 287 289 290 294 286 291 289 292 290 287 289 290 287 285 288 288 287 288 286 289 293 287 283 284 283 285 290 291 291 291 290 290 291 292 292 292 292 292 292 291 292 292 292 292 291 291 291 291 291 291 291 291 290 291 291 290 290 291 291 291
302 301 303 301 301 294 294 296 302 304 303 302 304 302 302 299 294 295 294 292 296 295 293 294 289 292 294 290 286 293 293 289 294 288 288 290 287 287 290 287 287 286 282 284 287 292 290 287 285 284 284 290 291 291 291 292 292 293 292 292 292 293 293 293 293 292 290 289 289 290 290 290 290 290 290 290 291 291 291 292 292 292 292 291 291 291 291
303 302 301 301 299 292 295 300 307 300 305 302 302 296 292 293 291 289 289 290 291 289 292 292 288 292 291 290 291 297 293 288 287 289 285 291 286 284 287 282 287 287 283 284 286 293 283 285 285 285 284 287 288 290 291 292 293 293 293 293 294 294 294 294 293 292 291 290 290 291 290 289 288 289 290 291 291 292 292 292 292 292 292 292 292 291 292
301 298 295 296 295 298 302 303 301 301 301 295 296 292 287 291 288 285 291 287 287 290 291 287 292 293 292 289 288 289 297 292 286 285 286 288 294 285 287 286 288 284 279 281 283 290 283 280 284 283 282 286 287 291 291 292 292 293 293 293 294 294 293 294 293 294 293 293 293 293 293 292 292 292 291 291 291 290 291 292 292 293 292 292 291 291 290
301 301 298 295 299 302 302 303 302 300 296 290 289 288 287 285 289 290 288 286 285 286 292 291 293 292 293 294 292 288 296 298 296 295 289 285 292 291 286 282 288 282 281 281 286 287 285 283 283 281 283 287 288 290 291 291 292 292 293 293 294 294 294 293 293 294 293 293 293 292 293 293 293 292 292 292 292 292 290 291 292 293 292 292 291 291 292
298 298 299 302 303 302 302 299 297 291 290 291 286 283 286 286 288 288 289 284 284 287 289 289 287 288 289 290 291 293 292 297 292 289 288 284 288 286 284 285 286 281 277 285 287 286 284 280 280 281 286 289 290 291 292 291 291 291 293 293 293 293 293 293 293 293 294 293 292 292 293 293 293 293 293 293 292 292 292 292 292 293 292 293 293 292 293
301 301 302 303 299 295 296 290 291 290 283 283 282 281 284 283 285 284 285 289 290 289 290 296 294 295 296 297 293 295 291 296 290 289 286 285 289 288 284 283 282 277 283 289 285 282 280 279 280 283 288 288 290 291 292 292 292 292 293 294 294 294 294 293 293 293 293 293 293 293 293 293 293 293 293 293 293 292 292 292 292 292 292 293 292 293 292
303 303 298 295 291 290 291 281 290 287 284 285 282 278 282 282 284 286 284 286 288 289 293 289 290 290 286 292 289 289 290 294 292 290 288 289 286 283 283 279 281 287 290 284 283 279 281 283 284 286 288 289 291 291 291 291 292 292 292 294 295 294 294 293 293 293 293 293 293 293 293 293 293 294 294 294 293 292 292 292 293 293 293 293 293 292 292
296 292 292 289 286 288 286 278 289 284 279 282 285 284 285 282 284 286 285 289 291 289 292 292 291 290 288 292 293 291 289 287 291 286 283 286 283 284 282 281 285 286 282 279 281 282 282 281 286 287 288 289 290 291 292 292 292 292 291 292 292 291 293 294 293 293 292 292 293 293 293 293 293 293 293 293 294 294 293 293 293 292 293 293 292 292 293
290 289 288 282 277 284 285 282 283 281 286 287 285 288 287 288 289 288 291 293 291 292 291 290 291 291 288 291 287 286 289 289 286 286 287 286 281 280 285 288 287 281 280 280 278 278 280 283 286 286 289 289 290 291 292 292 293 293 292 291 292 293 293 293 293 293 293 293 293 293 293 293 293 293 293 294 293 293 294 294 294 293 293 292 292 292 293
292 291 290 288 282 285 288 283 283 287 288 289 290 291 291 291 292 292 293 293 292 293 292 293 292 292 288 288 288 289 289 288 284 287 288 282 281 284 288 282 278 279 276 276 277 279 282 285 287 289 290 290 290 291 292 292 292 292 292 292 293 292 293 293 293 293 294 295 294 294 293 293 293 294 293 293 294 294 294 294 295 294 293 293 293 293 293
287 291 290 282 280 285 283 286 292 291 292 293 292 292 293 293 291 290 293 294 294 294 292 292 289 290 288 292 290 286 287 288 284 285 287 284 285 282 280 280 279 281 281 279 280 284 284 287 288 288 291 292 291 291 291 291 292 292 293 293 293 293 292 292 292 293 293 293 293 293 294 293 293 294 293 294 294 294 295 295 295 295 294 294 293 293 292
292 289 286 285 287 288 288 291 290 287 289 291 292 292 291 290 290 291 293 294 293 293 294 292 289 288 285 288 286 285 283 287 281 282 285 283 279 276 276 275 277 276 282 284 283 285 286 289 290 291 291 291 292 292 292 292 293 293 293 293 293 293 293 293 293 293 293 293 293 293 294 294 293 293 293 294 294 294 295 296 295 295 295 294 293 293 292
289 288 289 288 288 289 291 292 289 287 289 290 290 290 291 290 290 292 295 293 294 293 293 291 291 287 286 286 283 284 283 286 284 284 282 279 280 281 280 276 279 279 281 285 286 287 290 291 291 290 291 292 291 292 292 293 293 292 293 294 294 293 293 294 293 293 294 293 293 293 294 294 293 293 293 293 293 294 294 294 295 295 295 295 294 293 292
292 290 290 294 288 287 288 285 285 286 287 288 289 289 291 290 290 291 295 295 294 291 288 286 287 285 284 284 283 278 282 286 283 282 281 280 283 281 279 278 281 284 285 288 290 290 291 291 291 291 291 292 292 293 294 294 294 294 295 294 294 294 294 294 294 294 293 294 294 291 293 294 294 295 296 296 294 293 293 293 294 295 294 294 294 293 293
289 286 287 290 293 292 291 291 290 289 289 291 290 292 292 290 292 293 296 294 291 287 285 288 286 284 283 280 282 285 287 284 282 283 280 283 285 281 281 283 284 286 288 288 289 291 291 292 292 290 292 291 292 293 293 294 294 294 295 295 294 294 293 293 294 294 293 293 294 294 294 295 296 295 295 294 294 293 291 292 294 294 294 294 294 295 294
Wind_Speed
21 23 23 24 24 24 24 24 23 21 22 11 9 8 5 4 3 5 5 5 8 5 6 6 5 8 9 13 17 16 11 9 7 12 8 10 8 10 10 11 13 13 11 9 9 10 9 9 3 4 4 7 5 8 12 3 4 9 5 9 3 2 2 6 8 7 10 9 8 9 10 12 14 12 9 8 10 9 8 5 4 3 1 3 2 2 2
21 23 24 25 25 24 24 23 22 19 16 9 9 8 7 6 1 4 5 5 4 5 4 5 6 7 9 10 13 9 10 9 9 10 10 9 8 9 8 11 15 14 10 8 11 10 5 4 10 2 1 7 1 7 6 6 4 7 3 2 6 3 1 5 1 1 5 6 7 9 11 9 5 5 6 9 8 8 8 8 3 4 3 7 5 2 2
21 23 24 25 25 25 24 23 22 20 15 11 6 5 7 8 4 2 3 1 2 4 4 6 6 7 9 11 8 9 8 5 11 12 12 11 11 10 10 10 13 11 10 16 16 10 9 8 2 10 2 5 11 8 6 5 7 4 8 7 2 2 1 3 5 4 5 4 3 3 5 6 8 8 11 12 12 4 2 1 1 4 4 7 3 3 4
21 22 24 25 25 26 24 24 23 22 18 14 6 6 6 5 3 2 3 2 2 2 5 6 6 7 9 6 7 8 8 6 7 8 10 9 10 8 9 11 12 12 11 12 11 13 11 11 5 6 5 8 8 0 10 7 3 6 9 7 2 2 5 7 5 1 2 3 3 3 9 10 6 8 11 12 11 9 3 3 2 2 4 2 1 16 7
21 22 24 25 25 25 25 24 25 24 22 11 5 6 6 6 3 3 3 4 1 6 4 8 6 1 6 3 4 7 6 5 4 5 6 2 6 7 8 9 9 9 10 9 12 12 14 13 13 11 9 8 6 9 10 6 7 7 6 5 1 2 1 5 4 1 4 7 1 2 11 10 9 9 12 15 12 5 1 1 4 4 5 3 6 11 13
21 22 23 25 25 25 24 26 26 26 25 17 5 6 7 3 4 3 4 3 5 5 4 8 6 8 11 5 9 11 13 8 4 6 8 6 5 6 5 9 11 13 12 10 7 11 12 13 4 13 10 2 1 7 12 12 8 5 8 1 2 1 3 4 2 6 4 0 2 5 8 12 5 10 7 11 18 20 12 5 9 4 2 3 6 8 12
21 21 22 24 25 25 25 26 27 28 29 20 5 7 3 3 2 5 2 1 4 4 5 7 6 6 5 3 6 4 8 12 11 6 7 8 8 6 3 8 7 9 11 11 6 6 4 3 10 7 6 3 3 5 3 7 5 9 9 7 2 2 3 5 4 5 6 4 5 6 8 9 12 5 10 4 6 11 13 14 10 5 8 13 11 11 10
21 21 22 24 25 25 25 26 27 28 31 19 1 6 7 7 6 4 5 4 3 3 4 6 6 5 7 2 7 7 6 5 10 11 7 3 6 9 7 11 10 15 5 10 9 8 7 5 5 8 9 4 5 1 3 7 9 8 9 7 5 6 2 6 6 6 7 8 5 4 6 6 8 5 6 10 8 7 9 7 10 12 12 13 14 14 9
21 21 21 22 24 24 24 25 25 28 26 8 8 6 7 5 4 3 6 6 5 5 4 4 5 4 6 5 7 6 9 8 8 7 10 9 7 10 11 11 11 16 7 9 10 10 8 7 5 6 5 4 4 2 3 2 1 5 5 2 3 7 2 3 6 4 5 7 8 6 6 9 8 8 8 2 3 3 4 4 5 11 11 12 12 9 6
21 21 21 22 22 22 23 24 24 25 25 7 8 7 7 7 4 6 6 5 3 6 4 4 2 3 4 2 4 6 9 9 11 4 5 12 11 12 11 11 7 3 9 9 10 10 10 8 6 5 6 5 6 5 4 8 3 3 3 9 4 5 3 1 2 4 3 2 6 5 5 6 7 8 6 9 5 4 8 10 9 9 11 9 5 5 8
21 20 21 21 22 22 23 23 22 22 15 9 8 7 7 7 7 8 6 5 3 6 5 6 6 4 2 2 3 5 5 9 8 6 4 9 10 14 13 11 9 7 8 10 10 11 9 7 6 4 5 6 6 4 6 6 7 3 7 4 1 7 7 3 5 3 2 3 4 2 5 5 2 5 8 7 6 4 5 8 8 8 5 4 9 10 10
20 20 21 21 22 22 23 23 22 20 16 9 8 5 6 6 6 6 4 4 2 4 5 6 6 6 9 8 1 4 4 4 6 6 5 7 11 12 13 10 10 5 10 11 11 10 10 8 8 6 6 6 7 6 5 4 1 3 10 10 7 10 7 0 1 1 2 6 3 3 3 2 5 8 9 11 10 11 11 9 10 12 15 16 15 13 12
19 19 20 21 21 22 22 23 23 21 20 12 10 6 6 7 6 5 4 5 4 7 4 6 5 8 7 6 10 2 10 6 5 3 3 5 7 9 8 9 10 11 12 12 13 12 8 3 3 5 6 6 7 6 3 1 1 3 6 3 6 3 1 2 1 1 2 2 2 2 1 4 6 4 7 8 11 8 10 8 7 8 10 13 14 13 13
19 19 20 20 21 21 22 23 23 22 21 16 8 7 6 7 7 7 4 5 4 6 9 7 9 7 8 8 9 8 8 9 8 4 3 3 3 7 9 8 11 11 10 10 11 9 6 3 3 4 6 5 5 6 7 6 2 4 4 2 1 4 5 2 2 1 1 2 2 2 1 1 5 4 10 10 7 5 3 0 6 4 5 7 12 16 15
19 19 19 20 20 21 22 22 22 22 22 22 9 4 7 7 8 6 7 5 2 5 8 6 8 7 12 7 9 8 7 7 4 5 11 7 3 4 2 8 10 9 9 9 7 6 2 3 3 2 3 3 2 2 3 4 2 5 6 5 4 1 2 3 3 3 5 2 2 2 2 3 2 4 9 8 6 8 7 7 5 5 5 9 12 14 15
19 19 19 19 20 21 22 22 22 21 21 23 11 6 6 8 8 6 8 4 4 3 7 8 7 8 8 7 9 9 7 4 5 5 2 2 6 3 5 6 5 7 8 7 6 4 2 3 3 3 2 4 1 2 3 4 7 11 6 5 3 3 2 3 3 2 1 2 2 3 1 3 1 5 7 9 9 8 9 4 3 2 9 12 12 13 12
18 18 19 19 19 20 21 21 22 21 20 19 10 8 6 9 9 9 8 4 6 5 7 10 8 6 6 7 7 7 7 5 7 5 4 4 5 8 6 8 5 6 5 7 7 3 2 3 5 3 2 6 4 0 4 5 5 6 17 9 3 1 0 0 3 3 4 4 3 1 2 3 4 7 5 8 9 11 5 1 2 5 8 13 12 11 11
19 18 18 19 19 20 21 21 22 21 20 21 11 7 6 8 9 11 6 4 3 6 8 10 10 7 8 7 6 8 6 6 9 7 3 7 8 9 9 6 9 6 8 5 3 4 1 2 2 2 2 3 3 2 1 0 2 4 5 4 3 5 3 1 2 3 3 4 1 4 3 2 8 9 9 7 7 6 1 1 2 5 8 11 10 12 11
18 17 18 18 19 20 20 21 21 21 21 21 14 7 6 8 10 10 7 6 5 5 8 10 9 9 9 8 8 8 7 8 9 6 5 6 8 12 13 4 7 5 8 6 4 4 4 1 2 3 1 1 4 3 4 2 1 2 5 6 3 4 4 1 4 4 3 2 1 4 4 3 6 8 6 7 6 1 5 2 2 8 10 9 9 11 9
17 17 17 18 18 19 20 21 21 21 21 19 13 7 5 8 8 9 9 4 5 7 7 9 10 12 9 10 9 9 8 8 9 8 7 7 11 15 6 3 8 7 7 10 4 3 4 4 3 4 4 1 5 6 2 3 2 4 6 7 3 6 3 3 5 3 3 2 1 4 3 2 6 11 3 11 4 3 3 9 12 8 11 15 14 11 11
17 17 17 17 17 19 19 21 21 21 21 21 16 6 4 6 6 9 8 8 3 3 5 7 8 10 9 10 9 10 10 9 9 9 8 8 10 7 6 5 7 6 5 6 7 3 1 3 5 3 2 3 4 3 2 3 5 12 7 6 6 8 4 3 5 4 3 3 4 4 3 4 7 9 5 5 4 6 5 8 10 8 9 12 11 10 11
16 16 16 16 17 18 18 19 20 20 21 20 19 8 1 4 4 6 8 5 5 3 3 2 3 7 8 7 6 8 9 9 9 8 8 7 7 6 6 8 7 7 5 6 6 5 7 6 6 3 5 4 5 4 5 2 1 6 7 6 1 8 5 4 5 9 5 4 5 5 5 6 8 8 8 8 9 12 13 10 9 8 8 10 10 10 9
15 15 16 16 16 17 17 18 19 19 20 20 15 7 7 5 5 8 9 1 3 3 4 3 3 6 5 7 7 7 6 6 7 8 9 9 4 7 8 7 7 7 5 6 6 7 7 8 5 6 4 6 5 6 3 3 2 6 3 7 6 7 5 1 2 10 11 10 8 6 6 8 10 8 6 7 8 10 11 12 11 12 11 9 10 11 11
14 15 15 15 15 15 16 18 18 18 20 19 13 7 6 5 5 7 7 1 3 1 4 5 3 3 5 8 8 7 6 6 8 7 6 8 6 4 5 7 7 6 6 7 5 7 5 4 5 4 4 6 7 3 5 4 6 6 4 3 5 7 5 4 5 5 0 4 5 7 8 7 7 8 10 9 9 9 8 9 9 10 9 9 9 9 9
14 14 14 14 14 15 15 17 18 18 18 18 16 10 8 3 6 7 8 3 2 3 1 3 3 4 5 4 5 5 6 5 4 6 6 7 8 7 7 6 5 5 7 7 6 7 3 3 3 3 3 5 7 3 3 3 4 4 2 7 3 6 7 1 5 3 2 7 7 8 7 6 6 6 7 8 8 8 7 7 8 8 8 8 7 5 6
14 14 14 14 13 13 14 16 17 18 18 19 15 8 6 5 5 6 7 6 5 3 3 3 5 2 3 6 6 5 4 5 7 4 7 7 6 4 5 5 1 4 5 4 5 3 4 2 3 2 6 4 8 4 4 4 4 2 2 5 6 4 9 3 3 5 7 9 8 8 8 7 7 7 7 6 7 7 7 5 6 6 6 5 5 5 5
15 14 13 13 12 12 13 14 15 15 17 17 10 8 7 4 4 6 6 7 6 3 1 3 3 2 3 6 4 3 8 6 5 5 6 6 8 6 5 5 7 4 5 5 2 3 2 2 3 5 6 5 6 3 5 3 5 3 2 8 4 2 8 7 2 5 4 4 6 6 2 4 5 7 7 9 8 8 8 7 7 7 8 7 8 7 5
15 14 13 12 12 11 11 13 13 15 15 16 10 8 4 3 4 5 4 6 5 3 5 3 5 6 1 4 5 4 8 7 7 6 6 6 6 5 4 7 6 5 4 5 2 1 4 6 7 3 2 4 5 1 3 3 2 4 6 7 7 6 7 4 6 5 6 7 6 0 5 8 7 7 6 7 5 4 5 5 7 7 5 1 1 1 7
14 14 13 12 10 11 10 11 12 13 14 12 7 7 3 1 3 5 6 5 5 6 5 3 2 4 1 5 4 6 6 5 6 6 5 5 7 6 5 4 5 6 4 3 3 1 4 4 3 4 4 4 4 5 5 3 2 3 6 7 8 6 4 7 6 4 7 6 4 3 4 7 6 6 4 4 3 2 1 4 4 2 2 1 1 3 1
14 14 13 11 10 9 10 10 12 12 13 7 6 6 5 5 5 6 7 5 6 5 4 4 1 3 0 4 5 4 4 5 2 3 4 4 3 6 5 5 3 5 4 2 3 4 2 1 2 5 4 4 4 3 2 5 6 7 8 7 5 4 5 3 2 5 6 5 6 4 9 8 7 5 4 4 1 7 8 6 4 5 5 4 2 2 4
16 15 13 9 8 8 9 11 11 11 11 5 6 4 3 2 5 7 9 7 5 5 3 5 1 1 2 2 1 5 5 2 2 3 5 6 2 3 2 6 7 6 4 4 2 2 2 3 4 3 3 6 3 3 6 5 1 7 9 8 6 6 6 6 2 5 8 4 3 5 2 3 2 4 6 4 3 0 1 3 6 6 5 4 4 5 5
16 15 11 9 8 8 9 10 9 9 7 6 4 5 4 4 5 7 9 7 6 5 4 5 1 1 3 2 2 2 5 7 5 5 2 6 4 5 3 4 3 6 4 3 2 1 3 2 0 3 2 3 1 2 5 3 5 2 3 4 5 5 4 2 2 3 3 3 3 1 2 3 4 9 7 5 4 2 3 5 2 6 3 1 1 3 2
16 13 10 8 7 8 9 9 8 5 4 6 5 4 6 1 4 6 6 6 4 5 3 4 2 2 1 5 1 2 5 5 4 5 4 5 5 4 2 3 3 2 3 2 2 2 1 1 0 2 5 0 2 3 4 3 4 9 7 4 3 4 4 4 2 2 2 2 2 1 1 4 3 1 4 5 3 2 1 3 5 4 2 2 3 3 1
14 12 9 7 8 9 8 8 8 8 7 4 2 2 4 7 4 5 6 4 3 4 3 2 2 2 2 3 3 3 5 6 3 2 1 4 5 5 4 4 2 2 3 4 3 3 1 4 2 3 1 1 1 2 2 1 3 3 2 3 4 2 2 2 0 1 1 4 1 2 3 5 4 3 1 2 2 1 1 3 5 5 4 2 5 3 2
14 10 9 8 8 8 10 8 5 4 5 5 4 4 4 7 6 6 5 4 3 2 2 2 2 4 2 2 0 4 4 6 3 5 3 4 2 5 4 3 1 2 3 3 3 3 1 3 3 3 0 3 1 1 2 4 2 2 1 1 2 3 4 3 3 2 2 4 1 1 1 2 3 3 2 1 2 4 4 2 4 5 4 4 2 3 2
13 9 7 6 7 7 5 5 4 5 2 4 4 4 3 7 7 5 4 4 3 4 3 1 3 3 2 3 3 2 3 2 5 4 3 3 2 0 4 3 3 3 3 2 3 2 2 5 2 4 1 2 1 1 3 4 4 2 2 3 1 2 2 2 1 2 2 3 1 1 3 3 4 4 3 3 3 3 2 3 3 2 4 4 4 3 2
10 5 3 5 4 4 5 3 4 3 3 3 5 8 9 7 5 5 5 5 5 4 3 4 3 4 6 2 1 3 5 1 2 3 2 2 4 2 2 3 2 2 3 2 3 0 5 1 2 3 2 3 2 3 3 3 3 5 6 4 2 1 2 3 1 1 1 2 1 2 3 5 5 3 3 3 3 3 1 2 2 4 4 5 4 3 2
7 7 4 4 3 3 3 2 4 1 5 6 6 4 3 3 2 3 3 2 2 1 2 3 3 4 1 3 2 3 5 2 2 3 2 3 3 1 2 3 3 2 3 3 4 5 3 1 1 2 3 4 2 2 1 1 3 3 4 4 4 3 2 2 2 3 4 6 5 2 4 5 5 4 3 4 4 4 2 2 2 3 4 4 4 1 2
3 3 6 4 2 1 3 4 2 1 5 1 1 2 2 0 1 1 1 2 0 2 1 0 3 4 4 2 2 3 5 3 3 2 2 3 2 2 2 4 2 2 3 3 2 4 3 2 2 2 3 0 2 6 8 2 4 3 3 5 5 5 3 2 2 3 2 4 1 2 5 4 5 6 6 6 4 3 1 1 3 4 4 3 3 3 4
4 4 3 4 1 4 4 4 4 4 2 3 2 2 0 0 1 1 0 1 2 1 1 0 3 4 5 4 4 1 4 5 2 2 2 2 3 2 2 3 1 2 3 3 3 2 2 3 1 2 2 4 7 6 2 3 5 5 4 4 5 5 4 3 1 1 2 4 5 3 2 3 4 4 5 4 5 5 1 2 3 5 4 3 3 3 4
3 5 2 4 4 1 4 3 4 2 3 0 1 0 1 1 1 1 1 2 1 1 2 3 2 1 1 2 0 2 4 3 2 2 3 1 2 3 2 3 2 3 2 2 2 2 2 2 2 2 2 3 2 4 3 4 4 4 3 2 3 3 4 4 1 2 3 5 3 1 3 3 5 5 5 2 3 2 1 4 5 5 4 3 4 6 6
3 3 3 6 5 1 3 3 3 1 1 1 0 1 0 0 0 2 1 1 1 1 4 1 0 2 4 4 5 5 3 3 2 2 2 1 2 2 2 2 1 2 2 2 2 2 1 2 2 2 2 3 4 3 4 4 5 4 3 3 3 4 5 2 2 3 5 5 2 2 1 2 3 2 4 2 2 2 3 4 6 4 4 4 4 4 5
11 7 5 3 3 2 2 1 2 1 1 0 0 1 1 1 2 1 1 2 1 2 2 2 3 1 3 4 0 2 3 3 3 1 1 1 1 1 2 2 1 2 2 4 2 2 2 2 2 2 3 5 3 4 4 4 5 5 4 4 4 4 4 3 3 5 4 2 2 2 3 2 3 3 2 3 3 4 3 3 4 5 3 4 4 5 6
5 3 3 1 0 0 0 0 0 0 1 1 2 3 1 1 2 1 1 2 1 0 4 3 1 3 1 1 3 0 1 3 0 2 1 1 1 1 1 2 3 2 2 4 2 4 3 2 2 5 3 5 1 3 5 4 5 5 4 4 3 3 3 3 3 5 3 3 3 3 2 2 3 2 1 1 3 5 3 5 6 8 5 4 6 4 6
3 1 1 0 0 0 1 1 1 1 3 2 3 1 1 1 1 1 1 2 2 3 4 2 3 3 2 2 2 1 1 1 2 1 1 1 3 2 2 3 2 2 3 4 3 3 2 3 1 2 2 3 3 2 1 2 2 3 4 4 8 6 10 9 5 4 4 4 4 5 5 4 3 2 2 2 3 3 5 6 3 3 5 5 4 8 2
2 2 2 2 1 3 2 1 1 3 2 2 1 2 4 3 3 4 3 1 2 2 2 2 3 2 3 1 2 0 2 1 2 1 0 1 2 3 2 3 2 4 3 3 4 4 3 3 3 2 1 2 2 2 1 1 2 3 4 4 4 5 4 2 6 8 5 5 6 8 7 6 6 4 4 3 3 3 5 4 4 5 6 5 5 6 4
1 0 2 2 2 1 2 2 3 2 1 1 2 3 2 3 3 4 4 2 2 3 2 2 3 2 3 0 2 2 0 1 2 0 1 3 2 2 1 2 3 2 3 3 3 3 3 2 2 1 3 4 3 4 3 3 3 3 4 5 4 2 6 6 7 9 7 7 4 6 6 6 6 5 5 5 5 4 4 5 6 6 6 7 6 6 1
1 1 2 2 2 2 5 3 2 1 2 2 3 2 2 1 1 2 1 2 3 3 2 3 3 1 3 2 0 3 2 2 2 2 1 2 0 2 2 2 3 3 3 3 4 2 2 2 3 3 2 1 2 2 3 3 3 4 6 6 6 3 5 6 6 6 8 9 5 7 3 1 5 6 8 8 4 4 5 6 5 6 5 5 5 4 2
2 2 2 2 2 2 2 0 1 2 2 1 1 1 2 1 1 2 3 1 2 2 3 3 2 2 2 0 2 2 3 1 2 1 0 1 2 2 2 3 3 5 2 2 3 2 3 5 4 3 4 2 2 3 4 3 4 4 5 4 4 2 3 5 5 6 6 8 9 8 5 6 5 6 7 10 8 4 5 6 6 6 6 6 5 7 7
1 3 2 3 3 3 4 1 2 1 3 2 2 3 1 2 1 3 3 2 2 2 2 3 0 2 2 1 2 1 2 1 2 1 2 3 3 2 3 6 5 5 3 3 3 3 5 6 5 4 4 4 4 5 6 6 4 5 6 5 4 6 6 5 6 7 8 8 10 7 7 5 6 6 6 8 6 5 4 5 5 6 6 7 7 7 6
1 2 3 3 4 2 4 3 2 2 2 4 3 1 0 1 2 3 2 2 1 2 2 2 1 2 2 2 2 3 0 2 2 4 4 4 2 3 5 6 5 4 3 3 5 5 5 5 6 5 2 4 5 6 6 6 7 7 5 6 6 6 6 6 8 8 7 7 9 9 8 7 7 6 1 8 7 5 5 5 5 4 5 7 7 6 6
2 3 3 3 5 4 4 2 2 3 3 1 2 2 0 3 1 5 4 3 2 3 3 0 2 2 2 4 2 2 2 2 4 3 4 3 2 4 5 4 4 4 4 4 5 5 5 6 5 4 5 7 7 7 7 7 7 6 6 6 6 6 7 8 8 7 7 6 5 8 10 9 5 6 6 2 9 5 5 5 6 7 6 6 7 7 7
Wind_Direction
343 344 343 343 341 341 339 338 338 342 345 348 351 318 281 232 248 87 160 151 220 240 272 268 254 247 265 279 278 283 274 287 281 284 299 290 272 275 250 265 266 253 282 307 276 246 253 278 295 27 28 204 210 10 319 307 115 317 337 331 10 307 217 211 228 244 267 273 309 309 274 245 231 226 246 225 223 220 246 246 122 166 120 257 200 107 89
346 346 345 344 342 340 338 337 339 343 358 340 312 300 289 310 297 147 131 178 212 262 298 311 304 301 279 275 288 302 316 311 299 275 253 245 267 263 281 259 242 262 237 250 261 265 285 300 102 87 116 268 125 303 260 140 51 261 21 297 342 283 334 295 109 335 246 281 319 274 272 288 267 244 215 255 263 233 219 237 238 262 196 250 247 170 182
347 347 347 346 342 340 338 338 337 341 347 341 314 303 316 303 289 269 113 338 255 320 343 298 296 305 300 280 289 299 276 261 284 301 302 317 325 313 258 293 315 295 278 258 255 267 274 269 152 116 188 314 281 233 13 3 139 42 0 1 151 334 162 252 241 210 227 230 240 3 330 282 256 241 262 242 235 249 12 312 348 261 201 234 277 71 87
348 347 348 347 344 342 339 338 338 337 345 341 307 288 291 294 326 53 159 97 7 320 356 317 306 315 311 310 292 290 295 305 289 269 270 281 284 290 309 299 296 293 301 288 260 251 242 262 253 144 200 181 225 328 310 290 32 75 359 335 59 100 50 27 340 159 151 289 348 289 293 279 284 273 247 240 233 256 278 2 334 254 337 263 99 146 165
349 348 349 348 346 344 341 339 338 336 335 349 303 283 247 283 314 13 336 343 81 345 4 345 333 17 254 263 314 279 265 234 303 314 288 22 290 289 283 287 281 287 287 277 278 271 266 251 244 241 149 189 217 172 223 255 288 341 315 330 143 144 119 139 228 265 144 139 85 38 333 316 342 342 0 323 253 184 180 346 267 80 192 114 288 131 135
351 349 349 350 349 347 343 341 339 337 331 340 303 285 282 304 69 25 64 321 6 338 17 346 342 17 23 340 357 324 355 347 74 304 333 335 325 307 290 277 266 266 257 265 258 262 264 261 19 25 35 300 189 208 175 214 166 211 257 202 344 227 142 134 71 247 294 342 13 13 353 336 345 360 337 349 33 27 9 264 239 238 81 124 150 136 122
353 350 351 352 350 349 346 341 342 340 333 330 240 300 7 1 327 81 281 302 53 4 345 345 359 36 21 310 359 353 34 346 352 1 39 10 339 5 314 268 281 301 340 320 265 19 342 340 18 18 2 62 28 20 298 329 151 207 242 248 230 324 227 144 168 201 219 218 251 4 4 348 352 34 1 5 80 70 52 10 26 87 109 139 138 116 96
353 352 352 353 352 352 347 344 345 342 337 322 285 42 350 32 355 354 324 245 82 28 19 0 11 34 359 355 3 360 18 16 351 332 27 56 341 358 348 340 6 319 43 34 38 23 31 12 348 358 350 7 341 87 151 209 245 220 236 229 207 232 221 212 205 225 229 219 235 296 299 326 329 355 43 30 21 79 107 100 59 71 102 118 119 105 88
353 353 352 352 354 352 348 347 348 344 343 344 11 48 12 341 24 329 324 331 32 287 33 20 14 27 26 17 0 356 4 354 349 325 2 13 16 1 355 348 8 314 18 24 19 3 353 339 342 307 331 348 349 358 290 118 352 319 15 15 319 184 250 176 216 232 232 229 228 192 220 265 293 290 289 307 44 73 49 84 120 123 125 114 104 104 108
351 352 351 352 352 351 349 349 349 351 337 351 2 27 360 347 349 295 284 295 38 308 65 43 41 43 57 36 6 12 358 355 351 344 332 2 1 357 346 354 358 309 19 9 354 336 321 322 323 303 311 295 294 278 277 302 33 102 38 33 0 343 296 208 245 236 252 207 187 189 199 194 242 253 288 288 123 123 90 72 93 112 121 124 134 115 119
350 351 350 351 352 351 350 349 350 356 356 8 343 360 11 2 347 318 320 300 41 356 11 43 8 20 305 195 33 39 17 358 8 3 331 338 346 345 344 356 358 349 12 348 324 312 306 289 282 269 249 274 276 282 287 257 254 119 139 94 221 318 317 302 10 272 243 313 17 306 194 211 213 16 319 312 232 172 104 89 97 126 150 90 99 115 121
351 350 350 352 351 351 349 349 349 354 1 336 313 319 15 343 326 304 315 329 49 34 59 39 22 19 2 351 119 156 84 52 351 346 326 319 323 332 339 346 350 334 354 318 316 313 289 250 244 237 242 239 253 267 262 279 277 176 169 158 159 151 240 105 8 307 295 17 13 51 255 233 10 310 358 36 76 91 92 79 81 95 103 110 117 128 142
351 351 351 351 351 350 349 348 349 351 357 345 329 352 11 350 315 335 342 332 45 355 4 83 19 28 7 19 346 317 147 129 142 265 271 302 319 332 337 326 327 338 326 319 318 304 295 307 306 286 262 217 218 221 228 122 321 10 347 92 147 129 207 105 115 100 354 277 112 223 87 346 14 7 19 42 77 79 88 72 57 83 102 116 128 138 136
352 352 351 351 351 350 349 348 347 348 351 350 326 332 22 6 359 350 8 333 58 26 340 18 37 5 340 17 343 325 137 170 181 138 253 268 285 331 326 324 326 315 311 321 305 297 303 239 240 219 222 221 219 235 204 228 220 348 301 305 156 159 122 141 79 70 163 254 201 140 42 347 26 332 25 2 31 358 341 157 119 101 115 118 110 125 126
353 353 352 351 350 349 349 348 347 349 350 348 314 345 33 17 354 346 316 311 57 69 21 15 355 343 319 22 357 353 10 346 309 182 199 206 216 170 255 325 309 317 309 298 312 315 308 318 298 279 284 238 232 268 281 292 288 230 267 297 292 254 220 146 207 180 226 260 236 191 153 192 76 346 355 360 356 340 350 85 105 150 132 105 96 104 121
353 354 352 352 350 349 349 348 348 349 354 350 337 2 55 11 346 342 321 9 337 44 27 11 344 322 318 32 359 9 346 341 357 325 273 32 19 31 56 330 317 296 298 306 290 293 323 321 308 279 267 105 148 323 328 10 349 330 310 279 290 263 237 259 253 236 240 341 325 309 330 87 317 39 332 0 338 344 336 263 107 100 108 109 109 106 111
353 354 354 353 351 349 348 347 347 350 351 358 337 334 45 5 0 347 322 49 59 64 15 13 352 340 353 20 359 13 347 358 327 351 343 348 66 6 12 344 310 275 332 295 293 293 265 243 260 272 320 337 83 286 42 23 335 307 332 295 243 201 274 340 257 248 232 166 200 187 84 80 12 13 1 331 342 321 309 223 136 66 125 118 120 122 114
352 354 354 353 351 349 348 347 347 349 352 350 346 313 31 3 3 335 310 54 59 55 39 17 22 17 21 7 359 355 351 347 339 313 341 323 26 1 340 348 346 16 323 312 333 267 251 330 308 342 324 82 312 239 82 263 122 255 280 8 2 335 13 341 302 289 277 247 123 84 117 18 357 337 333 334 328 317 255 115 120 184 133 115 125 133 141
350 353 354 353 351 350 348 347 348 350 352 355 346 330 49 1 358 347 344 65 45 66 34 31 35 40 13 17 22 359 21 1 349 334 12 337 8 335 308 7 348 354 356 347 337 15 335 246 316 292 312 202 250 28 99 149 347 3 348 355 10 13 10 314 355 346 322 288 51 79 65 313 291 307 313 332 293 69 78 154 194 86 99 108 88 86 94
349 351 353 352 350 350 349 348 348 349 350 353 352 329 23 16 3 357 354 24 74 65 39 42 27 45 38 33 19 22 11 22 7 2 2 349 350 327 305 150 22 349 12 347 34 15 344 12 349 25 308 32 54 328 301 183 263 32 12 6 346 17 345 357 42 334 309 317 120 112 69 27 326 315 260 7 46 105 127 59 49 99 103 86 79 87 94
348 348 350 351 349 349 349 348 347 346 346 347 351 325 4 30 357 351 355 356 49 72 68 41 59 51 43 43 33 22 26 26 15 1 353 345 337 330 36 17 6 358 12 356 335 0 327 331 39 343 339 293 66 237 340 24 87 66 5 3 32 18 321 9 58 17 319 50 71 58 52 58 27 22 59 48 16 333 88 81 67 51 91 88 81 80 98
347 346 347 349 347 346 347 347 347 344 345 346 340 308 111 51 357 358 339 3 49 78 64 59 69 74 57 54 55 47 33 21 29 8 351 345 329 26 21 22 24 5 24 335 3 338 24 358 347 7 4 16 5 346 13 307 232 69 67 3 73 24 36 5 45 34 40 74 95 119 92 66 61 66 73 57 45 44 42 60 76 90 81 75 79 74 70
346 345 346 347 345 343 343 344 345 343 343 346 349 339 5 360 14 336 309 292 149 157 216 159 109 52 67 69 57 41 61 40 21 24 9 345 343 57 28 12 9 334 21 14 2 342 3 357 2 346 330 41 358 322 295 217 39 44 31 76 39 59 36 312 78 87 77 63 75 92 89 80 72 75 87 79 75 67 63 65 64 54 51 52 57 44 41
343 343 344 344 340 340 340 341 343 342 342 342 344 324 343 356 343 345 314 77 343 112 101 36 345 48 16 24 35 38 19 54 37 33 24 7 2 31 53 32 352 337 24 5 348 337 345 335 346 324 9 52 322 345 8 41 32 0 322 134 89 58 353 27 59 112 155 94 121 98 95 87 78 75 74 70 66 72 75 77 76 74 70 65 58 57 52
342 340 341 340 337 337 337 338 340 339 339 341 339 313 277 297 19 341 336 343 328 306 35 89 63 7 310 24 29 34 26 18 34 30 21 47 34 18 18 357 342 347 345 344 330 318 303 316 329 314 86 37 325 357 38 325 71 358 332 50 8 66 326 342 104 91 35 106 118 113 104 105 102 119 107 98 93 90 88 90 92 101 97 94 101 103 100
340 339 339 338 335 332 334 334 335 336 336 335 333 318 339 16 357 342 323 333 307 307 292 60 74 70 344 28 28 37 15 31 3 26 39 23 63 21 359 343 225 226 277 298 322 329 334 348 328 6 14 44 342 324 41 20 338 41 345 51 31 315 287 48 45 84 98 108 122 123 111 109 108 101 96 92 97 90 92 96 102 109 107 109 110 105 113
338 336 334 332 332 328 328 329 331 331 330 333 329 314 326 23 21 357 2 346 328 244 236 102 91 103 76 50 0 26 23 26 23 2 29 38 27 18 11 1 349 13 10 340 6 295 293 286 29 15 9 25 328 360 343 342 5 356 34 62 330 7 40 1 311 129 158 140 126 135 150 144 120 113 112 116 123 132 130 137 141 131 134 143 136 139 150
332 331 329 328 323 325 322 324 326 326 324 324 308 297 295 2 46 15 19 359 353 341 317 312 119 60 279 81 352 42 32 36 10 15 1 14 33 350 19 15 0 14 8 333 319 25 23 25 33 359 34 27 339 149 106 313 252 233 50 53 49 42 24 30 38 31 57 88 123 19 65 115 123 130 127 124 125 129 141 141 119 106 86 87 198 171 187
328 329 327 321 319 316 320 318 319 320 323 315 299 294 242 42 57 55 26 345 320 316 310 320 160 173 176 63 0 25 66 46 29 15 12 6 23 355 33 13 24 352 359 342 327 328 40 51 23 18 21 12 311 333 292 216 213 80 76 62 65 59 2 41 32 30 93 101 121 351 93 116 120 109 109 92 85 81 77 129 101 163 188 144 274 233 192
328 329 324 319 312 314 311 311 312 316 324 312 284 276 246 126 36 35 13 348 334 324 309 313 266 82 101 39 39 333 11 45 341 17 11 6 15 19 28 322 21 8 328 315 342 21 12 53 54 48 20 45 324 313 292 347 61 101 118 91 59 88 76 92 21 15 80 72 60 75 108 130 147 148 117 107 153 37 27 49 50 43 44 328 184 1 329
330 329 326 317 312 304 303 302 311 317 310 286 282 273 260 178 68 13 360 340 330 314 316 287 325 128 107 118 154 347 301 54 8 8 339 335 5 29 21 352 46 358 4 351 33 52 327 35 356 76 108 47 337 310 344 327 26 85 24 51 81 38 30 45 79 143 113 115 111 100 122 96 138 191 164 121 115 12 256 229 115 79 56 331 342 314 23
332 329 324 316 304 297 294 300 309 315 286 286 346 12 26 352 332 328 321 311 312 288 286 300 285 207 135 142 105 240 319 5 296 210 197 350 20 350 20 10 58 27 21 345 354 260 39 326 342 304 47 68 301 311 295 291 82 102 127 94 55 72 99 90 12 45 79 115 130 141 146 143 81 66 60 58 60 74 355 329 83 121 162 95 304 236 221
332 329 322 313 304 295 291 294 307 311 329 353 25 95 98 32 293 279 317 323 279 264 278 280 322 6 345 78 149 85 322 275 287 345 56 4 22 326 306 308 87 81 107 254 334 23 89 281 174 260 88 268 296 303 321 307 85 84 47 70 110 79 64 59 37 32 69 90 15 3 25 62 61 95 164 183 196 344 80 241 267 233 226 291 278 272 284
332 331 324 312 292 291 291 303 298 289 264 253 202 114 49 14 345 17 331 289 289 297 280 282 305 242 141 160 215 95 318 343 20 326 78 82 7 303 22 324 102 269 103 347 28 280 251 289 350 69 189 153 18 313 285 63 29 347 20 107 103 115 107 115 242 148 152 94 85 40 46 61 36 21 55 317 316 118 204 288 287 306 291 231 252 249 263
331 336 328 314 310 313 308 306 293 249 274 237 91 49 11 359 334 301 302 321 309 217 204 267 292 289 245 200 216 95 331 292 350 29 335 40 22 345 321 288 215 244 104 254 272 289 60 65 14 286 58 59 272 348 293 305 58 45 78 35 136 167 153 192 188 219 105 91 89 145 239 226 219 226 266 278 231 221 226 264 333 320 306 279 233 263 290
332 340 347 342 312 284 269 208 229 265 248 31 25 43 4 290 274 266 269 270 273 319 295 209 180 259 275 357 57 90 283 12 359 345 22 306 232 58 327 13 306 69 317 325 323 311 51 39 332 311 65 227 263 315 42 25 8 43 28 304 354 278 270 265 322 139 142 131 109 21 314 298 271 288 295 271 267 288 310 357 313 294 278 291 271 255 278
323 338 278 272 253 226 235 232 118 39 24 344 314 302 287 284 247 242 233 237 208 209 289 328 325 24 15 22 104 60 325 66 235 276 0 359 1 325 328 302 351 20 299 226 226 338 85 7 317 292 273 274 327 359 17 24 355 336 346 352 329 284 276 240 233 230 185 146 186 288 261 254 267 268 269 285 294 291 263 215 237 275 272 267 287 300 344
320 293 260 212 210 242 215 87 55 25 332 292 277 284 190 189 226 182 183 229 118 221 230 270 309 25 203 283 51 6 304 341 356 335 32 29 302 305 23 310 48 321 304 340 57 351 325 332 274 290 280 261 288 133 156 335 330 324 287 280 283 268 262 263 187 196 210 202 212 245 293 293 282 279 279 275 281 289 256 211 219 224 254 271 278 326 308
273 246 226 255 254 341 34 70 119 185 261 237 233 270 189 206 251 73 139 108 210 229 164 62 26 356 347 20 66 68 356 339 327 0 340 98 310 10 45 317 86 307 336 292 71 3 283 265 256 263 279 112 267 57 66 39 309 292 297 304 311 316 327 286 234 215 215 292 7 205 241 291 320 336 342 334 306 272 65 161 224 240 254 265 245 220 251
224 222 241 224 127 86 122 103 186 216 234 242 191 276 267 236 271 156 56 235 192 140 85 1 351 356 10 351 342 77 27 316 335 22 345 345 55 341 22 302 19 320 316 314 75 318 289 306 324 295 290 46 63 83 299 342 317 321 349 342 319 290 269 277 187 119 159 219 233 267 350 306 310 329 328 322 319 297 213 179 237 246 231 228 56 356 287
230 296 309 44 28 4 76 159 165 214 242 300 55 278 332 288 302 42 172 223 166 98 17 337 145 101 302 324 351 334 101 300 298 349 284 324 57 280 289 298 7 309 303 292 53 312 317 299 298 283 325 92 94 67 18 336 330 344 346 346 290 264 269 268 242 140 224 237 218 152 292 356 336 328 304 331 346 304 185 230 218 216 211 224 191 218 251
355 308 330 290 307 54 182 187 214 185 5 323 235 284 221 186 223 219 243 322 124 102 129 283 43 330 63 336 0 347 85 27 316 323 324 345 70 308 297 300 309 319 303 21 352 277 291 282 287 285 336 31 55 360 350 352 2 334 333 324 332 338 311 276 170 229 247 254 230 261 319 12 335 292 309 357 120 220 200 236 276 258 198 212 245 270 269
290 258 257 274 208 180 247 203 114 281 153 42 273 337 236 208 215 211 130 147 91 291 112 250 32 335 80 317 311 49 6 350 312 153 242 326 40 241 306 327 328 262 284 317 293 310 293 286 286 308 70 65 8 339 6 353 337 332 11 359 331 315 288 270 233 243 215 264 352 9 295 288 285 338 348 270 259 212 145 167 230 268 220 230 237 266 279
282 255 229 234 326 19 304 281 206 342 313 235 196 180 214 228 177 142 188 122 156 260 11 341 13 288 93 119 303 350 186 176 193 298 294 57 276 311 300 268 249 294 308 264 270 270 274 281 281 315 57 117 166 42 27 358 350 330 337 285 270 275 274 276 251 254 220 206 225 241 287 315 301 297 252 224 268 284 215 201 212 228 228 227 244 247 261
235 211 284 308 288 248 67 354 216 183 227 196 249 243 171 179 111 99 84 24 327 131 209 273 330 327 297 53 270 105 324 315 120 259 352 345 297 297 271 283 325 303 283 296 293 285 301 290 328 298 1 352 22 59 95 339 338 340 335 327 77 43 352 328 279 261 283 254 249 242 235 263 282 285 288 271 243 221 274 276 227 240 248 242 245 266 228
207 221 176 145 329 273 225 215 187 241 211 172 232 15 49 66 47 88 100 211 281 80 47 45 281 297 299 97 296 355 181 295 297 261 260 252 284 280 299 302 295 292 303 288 284 284 294 314 56 78 350 322 29 316 334 353 326 303 287 315 16 75 104 265 307 296 276 266 229 227 238 216 230 250 255 249 252 255 229 249 275 234 229 239 253 265 263
242 325 275 279 292 226 216 232 213 224 169 217 35 57 42 73 65 66 53 317 335 27 346 77 285 327 302 314 254 211 183 338 286 296 281 268 251 289 297 301 291 270 269 279 282 295 303 339 353 320 18 36 350 324 322 284 281 295 304 306 316 209 199 220 226 245 239 225 290 313 292 286 273 256 232 241 252 223 231 234 234 256 263 250 246 254 129
233 254 272 250 228 207 212 226 247 73 10 22 81 49 77 69 138 90 63 21 15 10 1 350 322 241 240 109 328 287 280 220 257 269 273 295 296 259 305 275 266 270 268 277 281 325 344 28 355 347 14 323 290 292 289 304 307 286 277 277 268 291 341 322 306 308 327 313 267 225 192 314 315 336 335 301 238 238 223 209 223 236 235 245 248 265 273
4 307 252 235 258 232 246 110 200 229 148 100 62 175 146 212 210 149 111 27 320 9 24 310 340 329 277 135 273 280 266 114 271 267 215 229 264 254 236 263 273 283 273 276 310 8 341 7 39 337 306 285 253 250 260 275 277 277 281 280 288 314 239 275 309 327 324 310 299 281 223 195 227 234 214 245 252 230 244 220 202 218 224 231 237 251 245
235 219 245 262 247 244 266 315 306 267 154 191 205 249 162 239 196 83 70 292 3 301 257 217 175 305 325 335 278 293 276 236 241 271 261 258 247 254 254 268 267 268 298 9 326 305 308 320 319 299 281 282 285 289 296 282 266 269 269 273 269 282 290 284 281 274 258 251 262 274 282 238 222 237 259 254 252 261 266 271 227 208 223 225 231 232 244
251 282 258 238 258 339 14 262 226 241 203 199 227 255 277 276 87 108 92 309 307 283 265 283 106 210 278 282 278 253 263 3 277 237 236 262 278 267 254 263 272 290 313 318 301 319 316 307 299 307 313 280 276 278 263 275 290 287 284 280 284 290 285 264 255 257 274 296 311 292 255 215 198 191 196 299 269 252 248 239 251 219 209 224 227 235 241
217 223 238 230 257 245 229 283 327 296 309 78 224 225 24 277 34 105 117 281 275 279 284 307 265 270 245 254 261 293 306 268 265 287 272 263 235 254 261 273 313 330 343 328 312 310 307 325 330 346 315 299 296 286 283 281 279 285 290 306 306 281 256 260 261 264 275 277 285 296 293 289 196 152 122 288 291 261 249 251 208 198 218 226 229 218 227